sat.trackr.live / text

‹ back to catalog

FLOCK 4G-24

NORAD 62637 · 2025-009AE

PAYLOAD ACTIVE UNKNOWN

§ Identity

Operator
Country
US
Launch date
2025-01-14
Launch site
AFWTR
Launch vehicle
Mass (kg)
RCS (m²)

Purposes: earth_obs

External: N2YO · Heavens-Above · Gunter

§ Orbital elements

Epoch: 2026-09-19T11:22:43.247424Z

Period
94.03 min
Inclination
97.3967°
Eccentricity
0.0001936
Mean motion
15.31486097 rev/d
Perigee alt
470.1 km
Apogee alt
472.7 km
Semi-major
6,849.5 km
B*
2.4146e-4
RAAN
344.4766°
Arg perigee
342.6198°
Mean anomaly
17.4977°
Rev number
9,335

§ Raw data

FLOCK 4G-241 62637U 25009AE  26262.47411166  .00007265  00000+0  24146-3 0  99972 62637  97.3967 344.4766 0001936 342.6198  17.4977 15.31486097 93352

JSON: /api/v1/satellites/62637 · /tle

For live sub-satellite position, see the globe view (requires WebGL).

§ Visibility from observer

Set your observer location to see the next 7 days of passes ≥ 10°. The values pass through the URL so the page stays shareable.

No JS? Fill the form by hand. The geolocation button needs JavaScript.